• In Kazakhstan
  • List of Countries
  • For 7 days
  • Water Temperature
  • Weather Map
  • News
  • Weather Widgets
  • user-avatar
    Login

    Hourly Weather Seyðisfjörður

    Today, 23 September, Monday

    Time Temperature Precipitation Wind Pressure Humidity
    00:00 +8°C° 0 mm 4 mps 747 mmHg 94%
    01:00 +8°C° 0 mm 4 mps 747 mmHg 95%
    02:00 +8°C° 0 mm 4 mps 747 mmHg 96%
    03:00 +8°C° 0 mm 4 mps 747 mmHg 94%
    04:00 +10°C° 0 mm 3 mps 747 mmHg 92%
    05:00 +10°C° 0 mm 3 mps 747 mmHg 90%
    06:00 +11°C° 0 mm 3 mps 747 mmHg 91%
    07:00 +11°C° 0 mm 3 mps 748 mmHg 92%
    08:00 +12°C° 0 mm 3 mps 748 mmHg 92%
    09:00 +13°C° 0 mm 3 mps 748 mmHg 91%
    10:00 +14°C° 0 mm 3 mps 748 mmHg 89%
    11:00 +16°C° 0 mm 2 mps 748 mmHg 88%
    12:00 +16°C° 0 mm 3 mps 748 mmHg 87%
    13:00 +16°C° 0 mm 3 mps 748 mmHg 85%
    14:00 +17°C° 0 mm 3 mps 748 mmHg 83%
    15:00 +16°C° 0 mm 3 mps 748 mmHg 86%
    16:00 +14°C° 0 mm 3 mps 748 mmHg 89%
    17:00 +15°C° 0 mm 2 mps 747 mmHg 92%
    18:00 +14°C° 0 mm 2 mps 747 mmHg 94%
    19:00 +13°C° 0 mm 2 mps 747 mmHg 95%
    20:00 +12°C° 0 mm 2 mps 747 mmHg 97%
    21:00 +10°C° 0 mm 2 mps 747 mmHg 96%
    22:00 +10°C° 0 mm 2 mps 747 mmHg 96%
    23:00 +9°C° 0 mm 3 mps 746 mmHg 96%

    Tomorrow, 24 September, Tuesday

    Time Temperature Precipitation Wind Pressure Humidity
    00:00 +9°C° 0.1 mm 2 mps 746 mmHg 96%
    01:00 +10°C° 0.1 mm 2 mps 746 mmHg 95%
    02:00 +10°C° 0.1 mm 2 mps 745 mmHg 95%
    03:00 +10°C° 0.2 mm 2 mps 745 mmHg 96%
    04:00 +12°C° 0.2 mm 2 mps 745 mmHg 97%
    05:00 +12°C° 0.2 mm 2 mps 745 mmHg 97%
    06:00 +12°C° 0.2 mm 2 mps 745 mmHg 97%
    07:00 +11°C° 0.2 mm 3 mps 745 mmHg 96%
    08:00 +12°C° 0.2 mm 3 mps 745 mmHg 96%
    09:00 +12°C° 0.1 mm 3 mps 745 mmHg 95%
    10:00 +12°C° 0.1 mm 3 mps 746 mmHg 94%
    11:00 +12°C° 0.1 mm 3 mps 746 mmHg 93%
    12:00 +12°C° 0 mm 3 mps 746 mmHg 91%
    13:00 +12°C° 0 mm 3 mps 746 mmHg 90%
    14:00 +13°C° 0 mm 3 mps 746 mmHg 88%
    15:00 +12°C° 0 mm 3 mps 746 mmHg 90%
    16:00 +12°C° 0 mm 3 mps 745 mmHg 92%
    17:00 +11°C° 0 mm 3 mps 745 mmHg 94%
    18:00 +11°C° 0 mm 3 mps 745 mmHg 94%
    19:00 +10°C° 0 mm 3 mps 745 mmHg 95%
    20:00 +10°C° 0 mm 3 mps 745 mmHg 96%
    21:00 +10°C° 0.1 mm 2 mps 745 mmHg 96%
    22:00 +10°C° 0.1 mm 2 mps 745 mmHg 96%
    23:00 +10°C° 0.1 mm 2 mps 744 mmHg 96%

    Day after tomorrow, 25 September, Wednesday

    Time Temperature Precipitation Wind Pressure Humidity
    00:00 +10°C° 0.3 mm 2 mps 744 mmHg 96%
    01:00 +10°C° 0.3 mm 2 mps 744 mmHg 96%
    02:00 +10°C° 0.3 mm 2 mps 743 mmHg 97%
    03:00 +10°C° 0.1 mm 2 mps 743 mmHg 97%
    04:00 +10°C° 0.1 mm 2 mps 743 mmHg 97%
    05:00 +10°C° 0.1 mm 2 mps 743 mmHg 97%
    06:00 +10°C° 0.3 mm 2 mps 743 mmHg 97%
    07:00 +10°C° 0.3 mm 2 mps 743 mmHg 97%
    08:00 +10°C° 0.3 mm 2 mps 743 mmHg 97%
    09:00 +12°C° 0.2 mm 2 mps 743 mmHg 96%
    10:00 +11°C° 0.2 mm 3 mps 743 mmHg 96%
    11:00 +11°C° 0.2 mm 3 mps 743 mmHg 95%
    12:00 +11°C° 0.2 mm 3 mps 743 mmHg 95%
    13:00 +11°C° 0.2 mm 3 mps 743 mmHg 95%
    14:00 +11°C° 0.2 mm 3 mps 742 mmHg 95%
    15:00 +11°C° 0.4 mm 3 mps 742 mmHg 96%
    16:00 +11°C° 0.4 mm 3 mps 742 mmHg 97%
    17:00 +10°C° 0.4 mm 3 mps 742 mmHg 97%
    18:00 +10°C° 0.8 mm 3 mps 742 mmHg 97%
    19:00 +10°C° 0.8 mm 3 mps 742 mmHg 97%
    20:00 +10°C° 0.8 mm 3 mps 742 mmHg 97%
    21:00 +10°C° 0.4 mm 3 mps 742 mmHg 97%
    22:00 +10°C° 0.4 mm 3 mps 742 mmHg 97%
    23:00 +10°C° 0.4 mm 3 mps 742 mmHg 97%

    26 September, Thursday

    Time Temperature Precipitation Wind Pressure Humidity
    00:00 +10°C° 0.3 mm 3 mps 742 mmHg 97%
    01:00 +9°C° 0.3 mm 3 mps 742 mmHg 97%
    02:00 +9°C° 0.3 mm 3 mps 742 mmHg 98%
    03:00 +9°C° 0.4 mm 3 mps 741 mmHg 98%
    04:00 +8°C° 0.4 mm 4 mps 741 mmHg 98%
    05:00 +8°C° 0.4 mm 4 mps 741 mmHg 98%
    06:00 +8°C° 1.3 mm 4 mps 741 mmHg 98%
    07:00 +8°C° 1.3 mm 4 mps 741 mmHg 98%
    08:00 +8°C° 1.3 mm 4 mps 741 mmHg 97%
    09:00 +8°C° 1.1 mm 4 mps 742 mmHg 97%
    10:00 +8°C° 1.1 mm 4 mps 742 mmHg 97%
    11:00 +8°C° 1.1 mm 4 mps 742 mmHg 97%
    12:00 +8°C° 1.2 mm 4 mps 742 mmHg 97%
    13:00 +8°C° 1.2 mm 4 mps 742 mmHg 97%
    14:00 +9°C° 1.2 mm 3 mps 742 mmHg 97%
    15:00 +8°C° 1.3 mm 4 mps 742 mmHg 97%
    16:00 +8°C° 1.3 mm 4 mps 743 mmHg 97%
    17:00 +8°C° 1.3 mm 4 mps 743 mmHg 98%
    18:00 +8°C° 0.5 mm 4 mps 743 mmHg 98%
    19:00 +8°C° 0.5 mm 4 mps 743 mmHg 98%
    20:00 +8°C° 0.5 mm 4 mps 743 mmHg 98%
    21:00 +7°C° 1.9 mm 4 mps 744 mmHg 98%
    22:00 +7°C° 1.9 mm 4 mps 744 mmHg 98%
    23:00 +7°C° 1.9 mm 5 mps 744 mmHg 98%

    27 September, Friday

    Time Temperature Precipitation Wind Pressure Humidity
    00:00 +7°C° 2.2 mm 4 mps 744 mmHg 98%
    01:00 +7°C° 2.2 mm 4 mps 744 mmHg 98%
    02:00 +7°C° 2.2 mm 4 mps 744 mmHg 98%
    03:00 +7°C° 1.4 mm 4 mps 744 mmHg 98%
    04:00 +7°C° 1.4 mm 4 mps 745 mmHg 98%
    05:00 +7°C° 1.4 mm 4 mps 745 mmHg 98%
    06:00 +7°C° 2.7 mm 4 mps 745 mmHg 98%
    07:00 +7°C° 2.7 mm 4 mps 746 mmHg 98%
    08:00 +7°C° 2.7 mm 4 mps 746 mmHg 98%
    09:00 +7°C° 2.5 mm 4 mps 746 mmHg 98%
    10:00 +7°C° 2.5 mm 4 mps 747 mmHg 97%
    11:00 +7°C° 2.5 mm 4 mps 747 mmHg 97%
    12:00 +7°C° 0.7 mm 5 mps 747 mmHg 96%
    13:00 +7°C° 0.7 mm 5 mps 747 mmHg 95%
    14:00 +7°C° 0.7 mm 5 mps 748 mmHg 95%
    15:00 +7°C° 0.8 mm 5 mps 748 mmHg 95%
    16:00 +7°C° 0.8 mm 5 mps 748 mmHg 96%
    17:00 +7°C° 0.8 mm 5 mps 748 mmHg 97%
    18:00 +7°C° 0.9 mm 5 mps 749 mmHg 97%
    19:00 +7°C° 0.9 mm 5 mps 749 mmHg 97%
    20:00 +7°C° 0.9 mm 5 mps 749 mmHg 97%
    21:00 +5°C° 0.5 mm 6 mps 749 mmHg 97%
    22:00 +5°C° 0.5 mm 6 mps 749 mmHg 97%
    23:00 +5°C° 0.5 mm 6 mps 749 mmHg 97%

    28 September, Saturday

    Time Temperature Precipitation Wind Pressure Humidity
    00:00 +5°C° 0.6 mm 6 mps 750 mmHg 97%
    01:00 +5°C° 0.6 mm 6 mps 750 mmHg 97%
    02:00 +4°C° 0.6 mm 6 mps 750 mmHg 96%
    03:00 +4°C° 0.6 mm 6 mps 750 mmHg 96%
    04:00 +4°C° 0.6 mm 6 mps 750 mmHg 96%
    05:00 +4°C° 0.6 mm 6 mps 750 mmHg 96%
    06:00 +4°C° 0.5 mm 6 mps 750 mmHg 96%
    07:00 +4°C° 0.5 mm 6 mps 751 mmHg 95%
    08:00 +4°C° 0.5 mm 6 mps 751 mmHg 95%
    09:00 +4°C° 0.4 mm 7 mps 751 mmHg 95%
    10:00 +3°C° 0.4 mm 7 mps 751 mmHg 95%
    11:00 +3°C° 0.4 mm 7 mps 752 mmHg 95%
    12:00 +3°C° 0.2 mm 7 mps 752 mmHg 95%
    13:00 +3°C° 0.2 mm 6 mps 752 mmHg 94%
    14:00 +3°C° 0.2 mm 6 mps 752 mmHg 94%
    15:00 +3°C° 0.5 mm 6 mps 752 mmHg 95%
    16:00 +3°C° 0.5 mm 6 mps 752 mmHg 95%
    17:00 +3°C° 0.5 mm 6 mps 752 mmHg 96%
    18:00 +3°C° 0.5 mm 6 mps 753 mmHg 96%
    19:00 +3°C° 0.5 mm 6 mps 753 mmHg 96%
    20:00 +3°C° 0.5 mm 6 mps 753 mmHg 96%
    21:00 +3°C° 0.5 mm 6 mps 753 mmHg 97%
    22:00 +3°C° 0.5 mm 6 mps 753 mmHg 97%
    23:00 +2°C° 0.5 mm 7 mps 753 mmHg 97%
    Show more